| time (UTC) | temp F | wind direction | speed knots | gust knots | rain 1hr in | rain 24hr in | rain mn in | humidity % | barometer mb |
| 20260904004607 | 85 | 0 | 0.0 | 1.7 | 0.00 | 0.70 | 0.70 | 84 | 1013.0 |
| 20260904003059 | 85 | 0 | 0.0 | 1.7 | 0.00 | 0.70 | 0.70 | 83 | 1013.0 |
| 20260904001608 | 86 | 0 | 0.0 | 1.7 | 0.00 | 0.70 | 0.70 | 83 | 1012.9 |
| 20260904000110 | 86 | 0 | 0.0 | 2.6 | 0.00 | 0.70 | 0.70 | 80 | 1012.9 |
| 20260903234605 | 87 | 0 | 0.0 | 1.7 | 0.00 | 0.70 | 0.70 | 79 | 1012.9 |
| 20260903233103 | 87 | 279 | 0.0 | 1.7 | 0.00 | 0.70 | 0.70 | 77 | 1012.8 |
| 20260903231559 | 87 | 0 | 0.0 | 3.5 | 0.00 | 0.70 | 0.70 | 76 | 1012.7 |
| 20260903230105 | 88 | 0 | 0.0 | 6.1 | 0.00 | 0.70 | 0.70 | 77 | 1012.7 |
| 20260903224558 | 89 | 206 | 0.0 | 3.5 | 0.01 | 0.70 | 0.70 | 76 | 1012.9 |
| 20260903223100 | 89 | 0 | 0.0 | 2.6 | 0.01 | 0.70 | 0.70 | 75 | 1013.0 |
| 20260903221602 | 89 | 0 | 0.0 | 5.2 | 0.01 | 0.70 | 0.70 | 75 | 1013.1 |
| 20260903220107 | 90 | 180 | 0.0 | 2.6 | 0.01 | 0.70 | 0.70 | 75 | 1013.5 |
| 20260903214614 | 89 | 0 | 0.0 | 2.6 | 0.00 | 0.69 | 0.69 | 74 | 1013.6 |
| 20260903213100 | 89 | 0 | 0.0 | 2.6 | 0.00 | 0.69 | 0.69 | 74 | 1013.7 |
| 20260903211611 | 89 | 0 | 0.0 | 0.0 | 0.00 | 0.69 | 0.69 | 73 | 1013.9 |
| 20260903210104 | 89 | 0 | 0.0 | 2.6 | 0.00 | 0.69 | 0.69 | 75 | 1013.7 |
| 20260903204603 | 89 | 0 | 0.0 | 3.5 | 0.00 | 0.69 | 0.69 | 75 | 1013.9 |
| 20260903203102 | 88 | 80 | 0.9 | 3.5 | 0.00 | 0.69 | 0.69 | 77 | 1014.1 |
| 20260903201609 | 88 | 0 | 0.0 | 3.5 | 0.00 | 0.69 | 0.69 | 78 | 1014.4 |
| 20260903194603 | 87 | 0 | 0.9 | 5.2 | 0.00 | 0.69 | 0.69 | 79 | 1014.3 |
| 20260903193103 | 88 | 0 | 0.9 | 5.2 | 0.00 | 0.69 | 0.69 | 79 | 1014.4 |
| 20260903191601 | 89 | 0 | 0.9 | 4.3 | 0.00 | 0.69 | 0.69 | 76 | 1014.4 |
| 20260903190111 | 90 | 53 | 0.0 | 2.6 | 0.00 | 0.69 | 0.69 | 74 | 1014.5 |
| 20260903184606 | 90 | 0 | 0.0 | 5.2 | 0.00 | 0.69 | 0.69 | 76 | 1014.6 |
| 20260903183103 | 89 | 0 | 0.0 | 2.6 | 0.00 | 0.69 | 0.69 | 79 | 1014.4 |
| 20260903181604 | 88 | 0 | 0.0 | 1.7 | 0.00 | 0.69 | 0.69 | 78 | 1014.6 |
| 20260903180109 | 88 | 0 | 0.0 | 1.7 | 0.00 | 0.69 | 0.69 | 78 | 1015.1 |
| 20260903174602 | 88 | 0 | 0.0 | 3.5 | 0.00 | 0.69 | 0.69 | 78 | 1015.3 |
| 20260903173102 | 89 | 0 | 0.0 | 2.6 | 0.00 | 0.69 | 0.69 | 78 | 1015.3 |
| 20260903171607 | 89 | 0 | 0.0 | 1.7 | 0.00 | 0.69 | 0.69 | 77 | 1015.4 |
| 20260903170107 | 89 | 0 | 0.0 | 0.0 | 0.00 | 0.69 | 0.69 | 80 | 1015.5 |
| 20260903164609 | 86 | 0 | 0.0 | 1.7 | 0.00 | 0.69 | 0.69 | 87 | 1015.7 |
| 20260903163101 | 83 | 0 | 0.0 | 2.6 | 0.00 | 0.69 | 0.69 | 88 | 1015.6 |
| 20260903161605 | 82 | 0 | 0.0 | 1.7 | 0.00 | 0.69 | 0.69 | 91 | 1015.5 |
| 20260903160109 | 82 | 207 | 0.0 | 0.0 | 0.01 | 0.69 | 0.69 | 93 | 1015.2 |
| 20260903154608 | 81 | 0 | 0.0 | 0.9 | 0.01 | 0.69 | 0.69 | 93 | 1015.1 |
| 20260903153130 | 79 | 0 | 0.0 | 0.0 | 0.03 | 0.69 | 0.69 | 93 | 1015.2 |
| 20260903151616 | 77 | 0 | 0.0 | 0.0 | 0.05 | 0.69 | 0.69 | 92 | 1015.2 |
| 20260903150121 | 76 | 0 | 0.0 | 0.0 | 0.05 | 0.68 | 0.68 | 92 | 1015.3 |
| 20260903144606 | 76 | 0 | 0.0 | 0.0 | 0.05 | 0.68 | 0.68 | 91 | 1015.4 |
| 20260903143108 | 75 | 0 | 0.0 | 0.9 | 0.09 | 0.66 | 0.66 | 91 | 1015.4 |
| 20260903141606 | 75 | 0 | 0.0 | 0.0 | 0.29 | 0.64 | 0.64 | 91 | 1015.7 |
| 20260903140104 | 75 | 0 | 0.0 | 0.0 | 0.54 | 0.63 | 0.63 | 90 | 1015.6 |
| 20260903134605 | 75 | 0 | 0.0 | 1.7 | 0.63 | 0.63 | 0.63 | 90 | 1016.0 |
| 20260903133104 | 76 | 0 | 0.0 | 4.3 | 0.57 | 0.57 | 0.57 | 89 | 1015.9 |
| 20260903131601 | 78 | 0 | 1.7 | 7.0 | 0.34 | 0.34 | 0.34 | 87 | 1016.0 |
| 20260903130058 | 84 | 0 | 2.6 | 7.0 | 0.09 | 0.09 | 0.09 | 85 | 1015.6 |
| 20260903124604 | 84 | 0 | 0.0 | 0.0 | 0.00 | 0.00 | 0.00 | 87 | 1014.9 |
| 20260903123104 | 83 | 0 | 0.0 | 0.0 | 0.00 | 0.00 | 0.00 | 87 | 1015.1 |
| 20260903121601 | 83 | 0 | 0.0 | 0.0 | 0.00 | 0.00 | 0.00 | 87 | 1014.6 |
| 20260903120058 | 83 | 0 | 0.0 | 1.7 | 0.00 | 0.00 | 0.00 | 87 | 1014.4 |
| 20260903114602 | 83 | 0 | 0.0 | 0.0 | 0.00 | 0.00 | 0.00 | 87 | 1014.4 |
| 20260903113100 | 83 | 0 | 0.0 | 0.0 | 0.00 | 0.00 | 0.00 | 87 | 1014.5 |
| 20260903111608 | 84 | 0 | 0.0 | 0.0 | 0.00 | 0.00 | 0.00 | 86 | 1014.5 |
| 20260903104621 | 84 | 0 | 0.0 | 2.6 | 0.00 | 0.00 | 0.00 | 86 | 1014.2 |
| 20260903103106 | 84 | 0 | 0.0 | 0.0 | 0.00 | 0.00 | 0.00 | 86 | 1014.1 |
| 20260903101601 | 84 | 0 | 0.0 | 0.9 | 0.00 | 0.00 | 0.00 | 86 | 1014.0 |
| 20260903094611 | 84 | 0 | 0.0 | 3.5 | 0.00 | 0.00 | 0.00 | 86 | 1014.0 |
| 20260903093106 | 84 | 0 | 0.0 | 2.6 | 0.00 | 0.00 | 0.00 | 86 | 1014.1 |
| 20260903091603 | 84 | 0 | 0.0 | 4.3 | 0.00 | 0.00 | 0.00 | 86 | 1014.1 |
| 20260903090058 | 84 | 255 | 0.9 | 6.1 | 0.00 | 0.00 | 0.00 | 86 | 1014.1 |
| 20260903084603 | 85 | 260 | 0.0 | 6.1 | 0.00 | 0.00 | 0.00 | 85 | 1014.0 |
| 20260903083107 | 84 | 0 | 0.9 | 6.1 | 0.00 | 0.00 | 0.00 | 85 | 1014.0 |
| 20260903081614 | 84 | 286 | 0.0 | 5.2 | 0.00 | 0.00 | 0.00 | 85 | 1014.0 |
| 20260903074601 | 84 | 0 | 0.9 | 8.7 | 0.00 | 0.00 | 0.00 | 85 | 1013.8 |
| 20260903073107 | 84 | 210 | 0.0 | 5.2 | 0.00 | 0.00 | 0.00 | 86 | 1013.6 |
| 20260903071605 | 84 | 0 | 0.0 | 1.7 | 0.00 | 0.00 | 0.00 | 86 | 1013.7 |
| 20260903064558 | 84 | 0 | 0.0 | 2.6 | 0.00 | 0.00 | 0.00 | 86 | 1014.2 |
| 20260903063108 | 84 | 0 | 0.0 | 1.7 | 0.00 | 0.00 | 0.00 | 86 | 1014.5 |
| 20260903061605 | 84 | 0 | 0.0 | 5.2 | 0.00 | 0.00 | 0.00 | 86 | 1014.6 |
| 20260903060111 | 84 | 0 | 0.0 | 1.7 | 0.00 | 0.00 | 0.00 | 86 | 1014.7 |
| 20260903054607 | 84 | 0 | 0.0 | 1.7 | 0.00 | 0.00 | 0.00 | 86 | 1014.9 |
| 20260903053101 | 84 | 0 | 0.0 | 2.6 | 0.00 | 0.00 | 0.00 | 86 | 1014.7 |
| 20260903051559 | 84 | 0 | 0.0 | 1.7 | 0.00 | 0.00 | 0.00 | 85 | 1014.9 |
| 20260903044600 | 84 | 170 | 0.0 | 0.9 | 0.00 | 0.00 | 0.00 | 85 | 1014.8 |
| 20260903043101 | 84 | 0 | 0.0 | 4.3 | 0.00 | 0.00 | 0.00 | 85 | 1015.1 |
| 20260903041604 | 85 | 0 | 0.0 | 2.6 | 0.00 | 0.00 | 0.00 | 86 | 1015.2 |
| 20260903040110 | 85 | 0 | 0.0 | 1.7 | 0.00 | 0.00 | 0.00 | 86 | 1015.4 |
| 20260903034607 | 85 | 0 | 0.0 | 1.7 | 0.00 | 0.00 | 0.00 | 85 | 1015.1 |
| 20260903033105 | 85 | 0 | 0.0 | 1.7 | 0.00 | 0.00 | 0.00 | 85 | 1015.1 |
| 20260903031611 | 85 | 0 | 0.0 | 1.7 | 0.00 | 0.00 | 0.00 | 85 | 1015.1 |
| 20260903030134 | 85 | 0 | 0.0 | 1.7 | 0.00 | 0.00 | 0.00 | 85 | 1015.1 |
| 20260903024603 | 85 | 0 | 0.0 | 3.5 | 0.00 | 0.00 | 0.00 | 85 | 1014.8 |
| 20260903023115 | 85 | 0 | 0.0 | 3.5 | 0.00 | 0.00 | 0.00 | 85 | 1014.6 |
| 20260903021601 | 85 | 0 | 0.0 | 2.6 | 0.00 | 0.00 | 0.00 | 85 | 1014.4 |
| 20260903020108 | 85 | 0 | 0.0 | 3.5 | 0.00 | 0.00 | 0.00 | 85 | 1014.1 |
| 20260903014620 | 85 | 209 | 0.0 | 5.2 | 0.00 | 0.00 | 0.00 | 85 | 1014.0 |
| 20260903013059 | 85 | 0 | 0.0 | 2.6 | 0.00 | 0.00 | 0.00 | 86 | 1014.3 |
| 20260903011605 | 85 | 0 | 0.0 | 3.5 | 0.00 | 0.00 | 0.00 | 85 | 1013.9 |
| 20260903010105 | 86 | 194 | 0.0 | 2.6 | 0.00 | 0.00 | 0.00 | 84 | 1013.4 |